STARLINK-4587, 53635

Orbit data source: Space-Track

STARLINK-4587, 53635 is a payload satellite owned by SpaceX/Seattle (US) in LEO that was launched on Sun, 28 Aug 2022 UTC via an FALCON 9 launch vehicle from the Air Force Eastern Test Range (AFETR). Payload-class satellites include a variety of spacecraft equipped with specific instruments for various scientific and technological missions. These include communications satellites like Starlink; space stations such as the ISS; scientific satellites like the Hubble; Earth observation satellites from companies like Planet Labs, Umbra, and HawkEye 360; GPS; miniature CubeSats for education and research; and military/defense satellites.

Loading next visibility...
Identifier
53635, 2022-104AZ
Orbit
LEO
Country
Flag of USUS
Related business
Manufacturer
SpaceX/Seattle
Mission
Operational Commercial Communications
Bus & Motor
STARLINK, Unknown motor
Mass
300 kg wet, ~290 kg dry
Launch date (UTC)
2022-08-28 (3 years ago)
Launch vehicle
FALCON 9
Launch site
Air Force Eastern Test Range (AFETR)
Object type
Payload
Rocket body
Debris
Shape & HBR
Box + 1 Pan, 10.1 m
Radar Cross Section
13.562 m², Large (>1 m²)

Expand to show TLE details & history
Last TLE update: 17 hours ago

TLE from 17 hours ago
0 STARLINK-4587
1 53635U 22104AZ  25286.95198307  .00001798  00000-0  13100-3 0  9999
2 53635  53.2159 162.7967 0000979  92.1324 267.9780 15.08847192174076
Epoch: 2025-10-13T22:50Z
TLE epoch observation values (Epoch: 2025-10-13T22:50:51.337Z)
Latitude
-0.00003°
Longitude
157.33538°
Altitude
540.643 km
Speed
7.593 km/s
True Right ascension
10h 51m 11s
True Declination
0° 00' 00"
Sunlit
Object was in daylight at epoch
Visualization orbit readout
Latitude
Unknown
Longitude
Unknown
Altitude
Unknown
Speed
Unknown
Apparent Right ascension
Unknown
Apparent Declination
Unknown
Sunlit
N/A
Visualization observer readout
Local Sidereal Time
10:00:04
Azimuth
Unknown
Elevation
Unknown
Doppler factor
Unknown
Orbital elements
Apogee altitude
540.644 km
Perigee altitude
539.289 km
Semi-major axis
6,918.104 km
Eccentricity
0.0001
Inclination
53.2159°
RAAN
162.7967°
Arg. of periapsis
92.1324°
True anomaly
267.96679°
Mean anomaly
267.978°
Eccentric anomaly
267.97239°
Mean motion
3.77192 °/min
Orbital period
95.44 mins
BSTAR
0.000131
Loading maneuver chart data...
Computing Atmospheric mass density...
Loading historical data...
Loading historical data...
Loading historical data...
Loading historical data...
Loading historical data...
Loading historical data...
Loading historical data...

Documentation

Showing up to 5 results
|